KC5NAM Weather Reports


Display with metric or nautical units.
time (UTC)temp
F
wind
direction
speed
MPH
gust
MPH
rain 1hr
in
rain 24hr
in
rain mn
in
humidity
%
barometer
mb
20260905024035 86 119 1.0 4.0 0.00 0.00 0.00 64 1017.2
20260905023538 86 0 0.0 6.0 0.00 0.00 0.00 64 1017.2
20260905023056 86 0 1.0 6.0 0.00 0.00 0.00 64 1017.1
20260905022534 86 71 2.0 6.0 0.00 0.00 0.00 64 1017.0
20260905022036 86 153 2.0 7.0 0.00 0.00 0.00 63 1016.9
20260905021554 87 86 1.0 7.0 0.00 0.00 0.00 63 1016.8
20260905021034 87 77 3.0 7.0 0.00 0.00 0.00 63 1016.7
20260905020535 87 360 2.0 8.0 0.00 0.00 0.00 63 1016.7
20260905020054 87 71 4.0 8.0 0.00 0.00 0.00 63 1016.6
20260905015534 87 97 1.0 8.0 0.00 0.00 0.00 63 1016.7
20260905015036 87 93 3.0 9.0 0.00 0.00 0.00 63 1016.6
20260905014550 87 91 3.0 9.0 0.00 0.00 0.00 62 1016.6
20260905014035 88 96 2.0 9.0 0.00 0.00 0.00 62 1016.7
20260905013535 88 87 3.0 9.0 0.00 0.00 0.00 62 1016.6
20260905013059 88 96 3.0 8.0 0.00 0.00 0.00 62 1016.4
20260905012535 88 103 2.0 8.0 0.00 0.00 0.00 61 1016.4
20260905012035 88 360 1.0 8.0 0.00 0.00 0.00 61 1016.4
20260905011614 89 82 2.0 8.0 0.00 0.00 0.00 60 1016.4
20260905011035 89 65 3.0 8.0 0.00 0.00 0.00 60 1016.2
20260905010537 89 50 4.0 8.0 0.00 0.00 0.00 60 1016.2
20260905010052 89 75 3.0 12.0 0.00 0.00 0.00 59 1016.1
20260905005534 90 0 2.0 12.0 0.00 0.00 0.00 59 1016.1
20260905005035 90 85 3.0 12.0 0.00 0.00 0.00 58 1016.0
20260905004548 90 84 3.0 11.0 0.00 0.00 0.00 58 1015.9
20260905004035 91 112 2.0 12.0 0.00 0.00 0.00 57 1016.0
20260905003537 91 38 2.0 12.0 0.00 0.00 0.00 56 1016.0
20260905003059 91 59 4.0 11.0 0.00 0.00 0.00 55 1015.9
20260905002535 92 74 5.0 13.0 0.00 0.00 0.00 54 1015.9
20260905002038 92 76 6.0 13.0 0.00 0.00 0.00 53 1015.8
20260905001606 92 101 5.0 11.0 0.00 0.00 0.00 50 1015.7
20260905001034 93 88 4.0 11.0 0.00 0.00 0.00 50 1015.5
20260905000534 93 91 4.0 10.0 0.00 0.00 0.00 51 1015.6
20260905000055 94 111 3.0 9.0 0.00 0.00 0.00 51 1015.4
20260904235535 94 78 3.0 9.0 0.00 0.00 0.00 52 1015.4
20260904235035 93 78 1.0 10.0 0.00 0.00 0.00 53 1015.6
20260904234548 93 69 3.0 10.0 0.00 0.00 0.00 53 1015.4
20260904234038 93 79 2.0 9.0 0.00 0.00 0.00 53 1015.4
20260904233535 94 120 3.0 9.0 0.00 0.00 0.00 53 1015.4
20260904233105 94 84 2.0 8.0 0.00 0.00 0.00 52 1015.3
20260904232536 94 0 3.0 8.0 0.00 0.00 0.00 52 1015.5
20260904232034 94 70 1.0 9.0 0.00 0.00 0.00 53 1015.4
20260904231551 94 0 2.0 10.0 0.00 0.00 0.00 53 1015.4
20260904231034 94 0 0.0 10.0 0.00 0.00 0.00 54 1015.4
20260904230539 94 69 3.0 10.0 0.00 0.00 0.00 54 1015.5
20260904230052 94 88 3.0 11.0 0.00 0.00 0.00 54 1015.5
20260904225535 94 69 4.0 11.0 0.00 0.00 0.00 53 1015.6
20260904225039 94 96 4.0 11.0 0.00 0.00 0.00 54 1015.6
20260904224637 94 77 2.0 7.0 0.00 0.00 0.00 56 1015.6
20260904224037 93 0 1.0 7.0 0.00 0.00 0.00 57 1015.5
20260904223536 93 74 1.0 8.0 0.00 0.00 0.00 57 1015.6
20260904223058 93 72 2.0 8.0 0.00 0.00 0.00 57 1015.6
20260904222536 93 76 1.0 6.0 0.00 0.00 0.00 57 1015.8
20260904222038 93 63 1.0 6.0 0.00 0.00 0.00 58 1015.8
20260904221557 92 0 1.0 6.0 0.00 0.00 0.00 57 1015.8
20260904221038 92 74 2.0 10.0 0.00 0.00 0.00 57 1015.9
20260904220537 93 71 1.0 10.0 0.00 0.00 0.00 57 1016.0
20260904220105 93 50 2.0 9.0 0.00 0.00 0.00 55 1016.0
20260904215538 94 46 3.0 9.0 0.00 0.00 0.00 55 1016.1
20260904215036 94 105 3.0 9.0 0.00 0.00 0.00 53 1016.0
20260904214552 94 74 4.0 9.0 0.00 0.00 0.00 51 1016.1
20260904214040 94 87 2.0 7.0 0.00 0.00 0.00 51 1016.2
20260904213539 94 71 2.0 6.0 0.00 0.00 0.00 51 1016.3
20260904213057 94 75 2.0 9.0 0.00 0.00 0.00 51 1016.3
20260904212537 94 79 2.0 9.0 0.00 0.00 0.00 51 1016.4
20260904212036 95 92 2.0 8.0 0.00 0.00 0.00 51 1016.5
20260904211558 95 0 1.0 8.0 0.00 0.00 0.00 52 1016.5
20260904211036 95 92 3.0 8.0 0.00 0.00 0.00 52 1016.5
20260904210538 95 71 0.0 7.0 0.00 0.00 0.00 52 1016.6
20260904210056 95 65 2.0 7.0 0.00 0.00 0.00 52 1016.7
20260904205538 95 349 0.0 11.0 0.00 0.00 0.00 51 1016.6
20260904205036 95 0 3.0 11.0 0.00 0.00 0.00 51 1016.7
20260904204555 96 93 2.0 10.0 0.00 0.00 0.00 51 1016.8
20260904204039 96 69 3.0 9.0 0.00 0.00 0.00 51 1016.8
20260904203538 96 360 2.0 9.0 0.00 0.00 0.00 51 1016.8
20260904203055 97 72 4.0 9.0 0.00 0.00 0.00 50 1017.0
20260904202537 97 109 1.0 8.0 0.00 0.00 0.00 50 1016.9
20260904202037 97 59 2.0 9.0 0.00 0.00 0.00 50 1017.0
20260904201606 97 0 1.0 9.0 0.00 0.00 0.00 50 1017.1
20260904201036 97 63 1.0 9.0 0.00 0.00 0.00 51 1016.9
20260904200536 96 0 2.0 9.0 0.00 0.00 0.00 51 1017.0
20260904200053 96 85 0.0 7.0 0.00 0.00 0.00 52 1017.1
20260904195536 96 83 3.0 7.0 0.00 0.00 0.00 52 1017.2
20260904195041 96 88 1.0 9.0 0.00 0.00 0.00 54 1017.3
20260904194558 95 78 1.0 9.0 0.00 0.00 0.00 53 1017.3
20260904194035 95 106 2.0 8.0 0.00 0.00 0.00 54 1017.3
20260904193535 94 77 2.0 8.0 0.00 0.00 0.00 55 1017.4
20260904193100 94 0 1.0 7.0 0.00 0.00 0.00 56 1017.4
20260904192534 94 0 0.0 7.0 0.00 0.00 0.00 57 1017.4
20260904192037 93 94 2.0 7.0 0.00 0.00 0.00 57 1017.5
20260904191550 93 73 0.0 6.0 0.00 0.00 0.00 57 1017.6
20260904191036 93 165 1.0 6.0 0.00 0.00 0.00 58 1017.7
20260904190534 93 86 1.0 6.0 0.00 0.00 0.00 58 1017.7
20260904190057 93 0 0.0 7.0 0.00 0.00 0.00 58 1017.7
20260904185535 93 116 3.0 8.0 0.00 0.00 0.00 58 1017.8
20260904185036 93 123 2.0 8.0 0.00 0.00 0.00 58 1017.8
20260904184552 93 0 2.0 8.0 0.00 0.00 0.00 58 1017.7
20260904184036 93 0 0.0 6.0 0.00 0.00 0.00 58 1017.8
20260904183535 92 0 1.0 7.0 0.00 0.00 0.00 58 1017.8
20260904183059 92 120 3.0 8.0 0.00 0.00 0.00 58 1018.0
20260904182534 93 117 1.0 8.0 0.00 0.00 0.00 58 1018.0
20260904182033 93 89 1.0 7.0 0.00 0.00 0.00 59 1018.1
20260904181547 93 101 2.0 7.0 0.00 0.00 0.00 58 1018.0
20260904181034 93 96 2.0 8.0 0.00 0.00 0.00 59 1018.1
20260904180534 93 102 3.0 10.0 0.00 0.00 0.00 59 1018.2
20260904180103 94 153 5.0 10.0 0.00 0.00 0.00 58 1018.3
20260904175534 94 67 3.0 10.0 0.00 0.00 0.00 57 1018.2
20260904175034 94 0 0.0 8.0 0.00 0.00 0.00 57 1018.2
20260904174550 95 163 4.0 10.0 0.00 0.00 0.00 58 1018.2
20260904174034 95 111 0.0 11.0 0.00 0.00 0.00 57 1018.2
20260904173535 96 0 4.0 11.0 0.00 0.00 0.00 55 1018.3
20260904173111 96 62 1.0 10.0 0.00 0.00 0.00 58 1018.5
20260904172539 95 0 2.0 10.0 0.00 0.00 0.00 58 1018.5
20260904172035 95 143 3.0 9.0 0.00 0.00 0.00 59 1018.7
20260904171557 94 186 0.0 8.0 0.00 0.00 0.00 62 1018.6
20260904171034 93 211 3.0 8.0 0.00 0.00 0.00 62 1018.8
20260904170534 92 146 3.0 8.0 0.00 0.00 0.00 65 1019.0
20260904170109 91 42 1.0 9.0 0.00 0.00 0.00 69 1019.0
20260904165534 90 116 3.0 9.0 0.00 0.00 0.00 68 1019.0
20260904165034 90 59 2.0 7.0 0.00 0.00 0.00 68 1019.1
20260904164554 90 0 2.0 7.0 0.00 0.00 0.00 69 1019.1
20260904164035 89 175 2.0 7.0 0.00 0.00 0.00 69 1019.2
20260904163536 89 197 1.0 7.0 0.00 0.00 0.00 70 1019.1
20260904163059 89 92 2.0 9.0 0.00 0.00 0.00 71 1019.1
20260904162535 89 181 2.0 9.0 0.00 0.00 0.00 70 1019.1
20260904162035 89 138 2.0 9.0 0.00 0.00 0.00 70 1019.0
20260904161554 89 167 1.0 7.0 0.00 0.00 0.00 70 1018.9
20260904161034 89 0 2.0 7.0 0.00 0.00 0.00 70 1019.1
20260904160535 89 69 2.0 6.0 0.00 0.00 0.00 71 1018.9
20260904160055 88 121 1.0 7.0 0.00 0.00 0.00 73 1018.9
20260904155534 88 180 2.0 7.0 0.00 0.00 0.00 73 1019.0
20260904155035 88 67 2.0 7.0 0.00 0.00 0.00 72 1018.9
20260904154549 87 0 2.0 9.0 0.00 0.00 0.00 74 1018.9
20260904154035 87 64 3.0 9.0 0.00 0.00 0.00 75 1018.9
20260904153535 86 162 4.0 9.0 0.00 0.00 0.00 75 1018.8
20260904153056 86 152 2.0 8.0 0.00 0.00 0.00 75 1018.7
20260904152535 86 154 3.0 8.0 0.00 0.00 0.00 76 1018.6
20260904152034 86 179 2.0 8.0 0.00 0.00 0.00 76 1018.5
20260904151556 86 0 1.0 9.0 0.00 0.00 0.00 77 1018.4
20260904151035 85 168 2.0 9.0 0.00 0.00 0.00 78 1018.4
20260904150536 85 0 2.0 7.0 0.00 0.00 0.00 79 1018.5
20260904150055 85 154 3.0 7.0 0.00 0.00 0.00 79 1018.5
20260904145534 85 121 0.0 10.0 0.00 0.00 0.00 80 1018.4
20260904145033 85 119 3.0 10.0 0.00 0.00 0.00 80 1018.4
20260904144553 85 75 1.0 8.0 0.00 0.00 0.00 80 1018.5
20260904144035 85 163 2.0 10.0 0.00 0.00 0.00 80 1018.4
20260904143534 85 165 2.0 10.0 0.00 0.00 0.00 80 1018.5
20260904143045 85 167 4.0 12.0 0.00 0.00 0.00 80 1018.5
20260904142536 85 0 3.0 12.0 0.00 0.00 0.00 80 1018.5
20260904142035 85 157 6.0 12.0 0.00 0.00 0.00 80 1018.4
20260904141602 85 175 6.0 10.0 0.00 0.00 0.00 82 1018.3
20260904141035 84 146 3.0 10.0 0.00 0.00 0.00 83 1018.3
20260904140534 84 120 3.0 8.0 0.00 0.00 0.00 83 1018.3
20260904140055 83 132 1.0 9.0 0.00 0.00 0.00 85 1018.3
20260904135535 83 0 1.0 10.0 0.00 0.00 0.00 86 1018.3
20260904135035 82 70 3.0 10.0 0.00 0.00 0.00 87 1018.5
20260904134553 81 0 0.0 6.0 0.00 0.00 0.00 88 1018.5
20260904134034 81 0 1.0 6.0 0.00 0.00 0.00 88 1018.5
20260904133535 81 89 1.0 5.0 0.00 0.00 0.00 89 1018.4
20260904133055 80 0 0.0 6.0 0.00 0.00 0.00 89 1018.4
20260904132536 80 86 2.0 7.0 0.00 0.00 0.00 89 1018.4
20260904132036 80 92 1.0 7.0 0.00 0.00 0.00 89 1018.4
20260904131552 80 76 2.0 6.0 0.00 0.00 0.00 90 1018.3
20260904131035 79 94 1.0 7.0 0.00 0.00 0.00 91 1018.3
20260904130534 79 0 2.0 7.0 0.00 0.00 0.00 90 1018.2
20260904130050 79 117 0.0 6.0 0.00 0.00 0.00 91 1018.3
20260904125538 79 82 0.0 6.0 0.00 0.00 0.00 91 1018.2
20260904125035 79 105 0.0 5.0 0.00 0.00 0.00 91 1018.1
20260904124601 79 84 1.0 5.0 0.00 0.00 0.00 91 1018.2
20260904124036 79 78 1.0 4.0 0.00 0.00 0.00 91 1018.0
20260904123534 78 0 1.0 4.0 0.00 0.00 0.00 91 1018.1
20260904123054 78 0 0.0 6.0 0.00 0.00 0.00 91 1018.0
20260904122535 78 84 1.0 6.0 0.00 0.00 0.00 91 1018.0
20260904122035 78 101 1.0 5.0 0.00 0.00 0.00 91 1018.0
20260904121549 78 0 0.0 3.0 0.00 0.00 0.00 91 1017.9
20260904121034 78 0 0.0 3.0 0.00 0.00 0.00 91 1017.9
20260904120538 78 98 0.0 3.0 0.00 0.00 0.00 91 1017.7
20260904120057 78 0 0.0 3.0 0.00 0.00 0.00 91 1017.6
20260904115535 78 0 0.0 3.0 0.00 0.00 0.00 91 1017.5
20260904115035 78 0 0.0 3.0 0.00 0.00 0.00 90 1017.4
20260904114556 78 0 0.0 4.0 0.00 0.00 0.00 90 1017.4
20260904114035 78 68 0.0 4.0 0.00 0.00 0.00 90 1017.3
20260904113535 78 96 0.0 4.0 0.00 0.00 0.00 90 1017.2
20260904113055 78 96 0.0 4.0 0.00 0.00 0.00 91 1017.3
20260904112534 78 0 1.0 5.0 0.00 0.00 0.00 90 1017.2
20260904112034 78 88 1.0 5.0 0.00 0.00 0.00 90 1017.2
20260904111605 78 96 1.0 4.0 0.00 0.00 0.00 90 1017.1
20260904111036 78 96 0.0 3.0 0.00 0.00 0.00 90 1017.1
20260904110535 78 0 1.0 2.0 0.00 0.00 0.00 90 1017.1
20260904110051 78 100 0.0 1.0 0.00 0.00 0.00 90 1017.1
20260904105534 78 0 0.0 3.0 0.00 0.00 0.00 90 1017.1
20260904105037 78 0 0.0 3.0 0.00 0.00 0.00 90 1017.1
20260904104544 78 0 0.0 3.0 0.00 0.00 0.00 89 1017.1
20260904104034 78 0 0.0 1.0 0.00 0.00 0.00 89 1017.2
20260904103534 78 0 0.0 1.0 0.00 0.00 0.00 89 1017.1
20260904103045 78 0 0.0 2.0 0.00 0.00 0.00 89 1017.3
20260904102535 78 0 0.0 3.0 0.00 0.00 0.00 89 1017.1
20260904102034 78 0 0.0 3.0 0.00 0.00 0.00 89 1017.0
20260904101557 78 0 0.0 3.0 0.00 0.00 0.00 89 1017.1
20260904101035 78 0 0.0 1.0 0.00 0.00 0.00 90 1017.0
20260904100535 78 0 0.0 1.0 0.00 0.00 0.00 90 1017.0
20260904100050 78 0 0.0 0.0 0.00 0.00 0.00 89 1017.1
20260904095535 78 0 0.0 0.0 0.00 0.00 0.00 89 1017.1
20260904095034 78 0 0.0 0.0 0.00 0.00 0.00 89 1016.9
20260904094609 78 0 0.0 0.0 0.00 0.00 0.00 89 1017.0
20260904094035 78 0 0.0 0.0 0.00 0.00 0.00 89 1016.9
20260904093537 78 0 0.0 0.0 0.00 0.00 0.00 89 1016.9
20260904093057 78 0 0.0 0.0 0.00 0.00 0.00 88 1016.8
20260904092535 78 0 0.0 0.0 0.00 0.00 0.00 88 1016.7
20260904092035 79 0 0.0 0.0 0.00 0.00 0.00 88 1016.7
20260904091548 79 0 0.0 0.0 0.00 0.00 0.00 88 1016.7
20260904091035 79 0 0.0 0.0 0.00 0.00 0.00 88 1016.8
20260904090539 79 0 0.0 1.0 0.00 0.00 0.00 88 1016.8
20260904090055 79 0 0.0 1.0 0.00 0.00 0.00 88 1016.8
20260904085535 79 0 0.0 0.0 0.00 0.00 0.00 88 1017.0
20260904085040 79 0 0.0 0.0 0.00 0.00 0.00 88 1016.9
20260904084552 79 0 0.0 0.0 0.00 0.00 0.00 88 1016.9
20260904084035 79 0 0.0 1.0 0.00 0.00 0.00 88 1016.8
20260904083535 79 0 0.0 1.0 0.00 0.00 0.00 87 1016.8
20260904083047 79 0 0.0 1.0 0.00 0.00 0.00 87 1016.8
20260904082534 79 0 0.0 1.0 0.00 0.00 0.00 87 1017.0
20260904082036 79 0 0.0 0.0 0.00 0.00 0.00 87 1017.0
20260904081629 79 0 0.0 0.0 0.00 0.00 0.00 87 1017.0
20260904081036 79 0 0.0 0.0 0.00 0.00 0.00 87 1017.0
20260904080535 79 0 0.0 0.0 0.00 0.00 0.00 87 1017.0
20260904080055 80 0 0.0 0.0 0.00 0.00 0.00 86 1017.0
20260904075537 80 0 0.0 0.0 0.00 0.00 0.00 86 1017.1
20260904075036 80 0 0.0 0.0 0.00 0.00 0.00 86 1017.1
20260904074606 80 0 0.0 0.0 0.00 0.00 0.00 85 1017.1
20260904074035 80 0 0.0 1.0 0.00 0.00 0.00 85 1017.2
20260904073537 80 0 0.0 1.0 0.00 0.00 0.00 85 1017.2
20260904073101 80 0 0.0 1.0 0.00 0.00 0.00 85 1017.3
20260904072536 80 0 0.0 3.0 0.00 0.00 0.00 85 1017.3
20260904072035 80 0 0.0 4.0 0.00 0.00 0.00 85 1017.2
20260904071551 80 0 0.0 5.0 0.00 0.00 0.00 85 1017.2
20260904071035 81 0 0.0 5.0 0.00 0.00 0.00 84 1017.2
20260904070535 81 171 0.0 5.0 0.00 0.00 0.00 84 1017.3
20260904070107 81 161 1.0 6.0 0.00 0.00 0.00 84 1017.3
20260904065535 81 0 0.0 6.0 0.00 0.00 0.00 84 1017.3
20260904065035 81 127 1.0 5.0 0.00 0.00 0.00 83 1017.4
20260904064554 81 0 0.0 6.0 0.00 0.00 0.00 83 1017.4
20260904064037 81 150 2.0 6.0 0.00 0.00 0.00 83 1017.4
20260904063537 81 146 1.0 6.0 0.00 0.00 0.00 83 1017.4
20260904063056 81 158 1.0 5.0 0.00 0.00 0.00 83 1017.4
20260904062534 81 0 1.0 5.0 0.00 0.00 0.00 82 1017.5
20260904062034 82 0 1.0 5.0 0.00 0.00 0.00 82 1017.6
20260904061543 82 0 1.0 5.0 0.00 0.00 0.00 82 1017.6
20260904061035 82 163 2.0 9.0 0.00 0.00 0.00 82 1017.6
20260904060535 82 0 3.0 9.0 0.00 0.00 0.00 82 1017.5
20260904060056 82 150 4.0 9.0 0.00 0.00 0.00 82 1017.6
20260904055535 82 175 4.0 9.0 0.00 0.00 0.00 81 1017.6
20260904055034 82 165 3.0 8.0 0.00 0.00 0.00 81 1017.6
20260904054553 82 156 4.0 11.0 0.00 0.00 0.00 81 1017.6
20260904054035 82 155 3.0 12.0 0.00 0.00 0.00 81 1017.5
20260904053534 82 154 5.0 12.0 0.00 0.00 0.00 80 1017.4
20260904053052 82 126 5.0 13.0 0.00 0.00 0.00 80 1017.4
20260904052536 82 126 3.0 13.0 0.00 0.00 0.00 80 1017.4
20260904052034 82 145 5.0 13.0 0.00 0.00 0.00 80 1017.4
20260904051545 82 158 4.0 11.0 0.00 0.00 0.00 80 1017.3
20260904051035 82 121 5.0 11.0 0.00 0.00 0.00 80 1017.3
20260904050535 82 150 2.0 9.0 0.00 0.00 0.00 80 1017.3
20260904050057 83 125 5.0 15.0 0.00 0.00 0.00 80 1017.4
20260904045535 83 104 2.0 15.0 0.00 0.00 0.00 80 1017.4
20260904045037 83 152 4.0 10.0 0.00 0.00 0.00 80 1017.3
20260904044555 83 146 3.0 13.0 0.00 0.00 0.00 79 1017.2
20260904044038 83 360 5.0 13.0 0.00 0.00 0.00 79 1017.3
20260904043535 83 150 4.0 12.0 0.00 0.00 0.00 79 1017.2
20260904043101 83 152 3.0 12.0 0.00 0.00 0.00 78 1017.3
20260904042534 83 144 3.0 12.0 0.00 0.00 0.00 78 1017.3
20260904042039 83 144 4.0 12.0 0.00 0.00 0.00 77 1017.3
20260904041549 83 162 4.0 10.0 0.00 0.00 0.00 77 1017.3
20260904041035 83 0 4.0 10.0 0.00 0.00 0.00 77 1017.3
20260904040535 84 155 3.0 15.0 0.00 0.00 0.00 76 1017.3
20260904040058 84 155 3.0 15.0 0.00 0.00 0.00 76 1017.3
20260904035535 84 360 5.0 14.0 0.00 0.00 0.00 76 1017.2
20260904035037 84 113 3.0 9.0 0.00 0.00 0.00 75 1017.2
20260904034554 84 165 2.0 11.0 0.00 0.00 0.00 75 1017.2
20260904034036 84 150 4.0 12.0 0.00 0.00 0.00 75 1017.2
20260904033535 85 155 5.0 12.0 0.00 0.00 0.00 74 1017.1
20260904033048 85 131 4.0 15.0 0.00 0.00 0.00 74 1017.0
20260904032535 85 101 3.0 15.0 0.00 0.00 0.00 73 1017.0
20260904032035 85 132 5.0 15.0 0.00 0.00 0.00 72 1016.9
20260904031548 85 156 6.0 15.0 0.00 0.00 0.00 72 1016.8
20260904031035 85 103 5.0 14.0 0.00 0.00 0.00 71 1016.8
20260904030538 86 198 4.0 16.0 0.00 0.00 0.00 71 1016.6
20260904030045 86 61 6.0 16.0 0.00 0.00 0.00 70 1016.7
20260904025536 86 110 7.0 15.0 0.00 0.00 0.00 69 1016.6
20260904025035 86 112 6.0 15.0 0.00 0.00 0.00 68 1016.5
20260904024555 87 93 6.0 15.0 0.00 0.00 0.00 67 1016.4